Time,TemperatureF,DewpointF,PressureIn,WindDirection,WindDirectionDegrees,WindSpeedMPH,WindSpeedGustMPH,Humidity,HourlyPrecipIn,Conditions,Clouds,dailyrainin,SolarRadiationWatts/m^2,SoftwareType,DateUTC
2013-07-05 00:01:00,76.3,71.8,30.17,NNW,343,0.0,0.0,86,0.00,,,0.00,520,WeatherCatV1.14B232,2013-07-05 04:01:00,
2013-07-05 00:06:00,76.3,71.8,30.17,NNW,342,0.0,1.0,86,0.00,,,0.00,520,WeatherCatV1.14B232,2013-07-05 04:06:00,
2013-07-05 00:11:00,76.2,71.7,30.17,NNW,343,0.0,0.0,86,0.00,,,0.00,520,WeatherCatV1.14B232,2013-07-05 04:11:00,
2013-07-05 00:16:00,76.1,71.6,30.17,NNW,343,0.0,0.0,86,0.00,,,0.00,520,WeatherCatV1.14B232,2013-07-05 04:16:00,
2013-07-05 00:21:00,75.9,71.4,30.17,NNW,342,0.0,0.0,86,0.00,,,0.00,520,WeatherCatV1.14B232,2013-07-05 04:21:00,
2013-07-05 00:26:00,75.8,71.3,30.17,NNW,343,0.0,0.0,86,0.00,,,0.00,520,WeatherCatV1.14B232,2013-07-05 04:26:00,
2013-07-05 00:31:00,75.6,71.4,30.17,NNW,343,0.0,0.0,87,0.00,,,0.00,520,WeatherCatV1.14B232,2013-07-05 04:31:00,
2013-07-05 00:36:00,75.5,71.3,30.17,NNW,343,0.0,0.0,87,0.00,,,0.00,520,WeatherCatV1.14B232,2013-07-05 04:36:00,
2013-07-05 00:41:00,75.3,71.2,30.17,NNW,343,0.0,0.0,87,0.00,,,0.00,520,WeatherCatV1.14B232,2013-07-05 04:41:00,
2013-07-05 00:46:00,75.1,71.3,30.17,NNW,342,0.0,0.0,88,0.00,,,0.00,520,WeatherCatV1.14B232,2013-07-05 04:46:00,
2013-07-05 00:51:00,74.9,71.1,30.18,NNW,343,0.0,0.0,88,0.00,,,0.00,520,WeatherCatV1.14B232,2013-07-05 04:51:00,
2013-07-05 00:56:00,74.8,71.0,30.17,NNW,342,0.0,0.0,88,0.00,,,0.00,520,WeatherCatV1.14B232,2013-07-05 04:56:00,
2013-07-05 01:01:00,74.7,70.9,30.17,NNW,343,0.0,0.0,88,0.00,,,0.00,520,WeatherCatV1.14B232,2013-07-05 05:01:00,
2013-07-05 01:06:00,74.6,70.8,30.17,NNW,342,0.0,0.0,88,0.00,,,0.00,520,WeatherCatV1.14B232,2013-07-05 05:06:00,
2013-07-05 01:11:00,74.5,71.0,30.17,NNW,343,0.0,0.0,89,0.00,,,0.00,520,WeatherCatV1.14B232,2013-07-05 05:11:00,
2013-07-05 01:16:00,74.5,71.0,30.17,NNW,342,0.0,0.0,89,0.00,,,0.00,520,WeatherCatV1.14B232,2013-07-05 05:16:00,
2013-07-05 01:21:00,74.4,70.9,30.17,NNW,343,0.0,0.0,89,0.00,,,0.00,520,WeatherCatV1.14B232,2013-07-05 05:21:00,
2013-07-05 01:26:00,74.4,70.9,30.17,NNW,343,0.0,0.0,89,0.00,,,0.00,520,WeatherCatV1.14B232,2013-07-05 05:26:00,
2013-07-05 01:31:00,74.2,70.7,30.17,NNW,342,0.0,0.0,89,0.00,,,0.00,520,WeatherCatV1.14B232,2013-07-05 05:31:00,
2013-07-05 01:36:00,74.2,70.7,30.17,NNW,343,0.0,0.0,89,0.00,,,0.00,520,WeatherCatV1.14B232,2013-07-05 05:36:00,
2013-07-05 01:41:00,74.1,70.6,30.17,NNW,343,0.0,0.0,89,0.00,,,0.00,520,WeatherCatV1.14B232,2013-07-05 05:41:00,
2013-07-05 01:46:00,74.0,70.9,30.17,NNW,343,0.0,0.0,90,0.00,,,0.00,520,WeatherCatV1.14B232,2013-07-05 05:46:00,
2013-07-05 01:51:00,74.0,70.9,30.17,NNW,343,0.0,0.0,90,0.00,,,0.00,520,WeatherCatV1.14B232,2013-07-05 05:51:00,
2013-07-05 01:56:00,74.0,70.9,30.17,NNW,343,0.0,0.0,90,0.00,,,0.00,520,WeatherCatV1.14B232,2013-07-05 05:56:00,
2013-07-05 02:01:00,74.0,70.9,30.17,NNW,343,0.0,0.0,90,0.00,,,0.00,520,WeatherCatV1.14B232,2013-07-05 06:01:00,
2013-07-05 02:06:00,73.9,70.8,30.17,NNW,343,0.0,0.0,90,0.00,,,0.00,520,WeatherCatV1.14B232,2013-07-05 06:06:00,
2013-07-05 02:11:00,73.9,70.8,30.17,NNW,343,0.0,0.0,90,0.00,,,0.00,520,WeatherCatV1.14B232,2013-07-05 06:11:00,
2013-07-05 02:16:00,73.8,70.7,30.17,NNW,343,0.0,0.0,90,0.00,,,0.00,520,WeatherCatV1.14B232,2013-07-05 06:16:00,
2013-07-05 02:21:00,73.7,70.6,30.17,NNW,343,0.0,0.0,90,0.00,,,0.00,520,WeatherCatV1.14B232,2013-07-05 06:21:00,
2013-07-05 02:26:00,73.6,70.5,30.17,NNW,343,0.0,0.0,90,0.00,,,0.00,520,WeatherCatV1.14B232,2013-07-05 06:26:00,
2013-07-05 02:31:00,73.5,70.7,30.17,NNW,342,0.0,0.0,91,0.00,,,0.00,520,WeatherCatV1.14B232,2013-07-05 06:31:00,
2013-07-05 02:36:00,73.4,70.6,30.17,NNW,343,0.0,0.0,91,0.00,,,0.00,520,WeatherCatV1.14B232,2013-07-05 06:36:00,
2013-07-05 02:41:00,73.2,70.4,30.17,NNW,343,0.0,0.0,91,0.00,,,0.00,520,WeatherCatV1.14B232,2013-07-05 06:41:00,
2013-07-05 02:46:00,73.0,70.2,30.17,NNW,342,0.0,0.0,91,0.00,,,0.00,520,WeatherCatV1.14B232,2013-07-05 06:46:00,
2013-07-05 02:51:00,72.9,70.4,30.17,NNW,343,0.0,0.0,92,0.00,,,0.00,520,WeatherCatV1.14B232,2013-07-05 06:51:00,
2013-07-05 02:56:00,72.8,70.3,30.17,NNW,342,0.0,0.0,92,0.00,,,0.00,520,WeatherCatV1.14B232,2013-07-05 06:56:00,
2013-07-05 03:01:00,72.7,70.2,30.17,NNW,343,0.0,0.0,92,0.00,,,0.00,520,WeatherCatV1.14B232,2013-07-05 07:01:00,
2013-07-05 03:06:00,72.6,70.1,30.17,NNW,343,0.0,0.0,92,0.00,,,0.00,520,WeatherCatV1.14B232,2013-07-05 07:06:00,
2013-07-05 03:11:00,72.5,70.4,30.17,NNW,343,0.0,1.0,93,0.00,,,0.00,520,WeatherCatV1.14B232,2013-07-05 07:11:00,
2013-07-05 03:16:00,72.5,70.4,30.17,NNW,343,0.0,0.0,93,0.00,,,0.00,520,WeatherCatV1.14B232,2013-07-05 07:16:00,
2013-07-05 03:21:00,72.4,70.3,30.17,NNW,343,0.0,0.0,93,0.00,,,0.00,520,WeatherCatV1.14B232,2013-07-05 07:21:00,
2013-07-05 03:26:00,72.4,70.3,30.17,NNW,343,0.0,0.0,93,0.00,,,0.00,520,WeatherCatV1.14B232,2013-07-05 07:26:00,
2013-07-05 03:31:00,72.3,70.2,30.17,NNW,342,0.0,0.0,93,0.00,,,0.00,520,WeatherCatV1.14B232,2013-07-05 07:31:00,
2013-07-05 03:36:00,72.2,70.1,30.17,NNW,343,0.0,0.0,93,0.00,,,0.00,520,WeatherCatV1.14B232,2013-07-05 07:36:00,
2013-07-05 03:41:00,72.2,70.1,30.17,NNW,343,0.0,0.0,93,0.00,,,0.00,520,WeatherCatV1.14B232,2013-07-05 07:41:00,
2013-07-05 03:46:00,72.2,70.4,30.17,NNW,343,0.0,1.0,94,0.00,,,0.00,520,WeatherCatV1.14B232,2013-07-05 07:46:00,
2013-07-05 03:51:00,72.2,70.4,30.17,NNW,343,0.0,0.0,94,0.00,,,0.00,520,WeatherCatV1.14B232,2013-07-05 07:51:00,
2013-07-05 03:56:00,72.2,70.4,30.17,NNW,343,0.0,1.0,94,0.00,,,0.00,520,WeatherCatV1.14B232,2013-07-05 07:56:00,
2013-07-05 04:01:00,72.2,70.4,30.16,NNW,343,0.0,0.0,94,0.00,,,0.00,520,WeatherCatV1.14B232,2013-07-05 08:01:00,
2013-07-05 04:06:00,72.2,70.4,30.16,NNW,343,0.0,1.0,94,0.00,,,0.00,520,WeatherCatV1.14B232,2013-07-05 08:06:00,
2013-07-05 04:11:00,72.2,70.4,30.16,NNW,343,0.0,0.0,94,0.00,,,0.00,520,WeatherCatV1.14B232,2013-07-05 08:11:00,
2013-07-05 04:16:00,72.2,70.4,30.16,NNW,343,0.0,0.0,94,0.00,,,0.00,520,WeatherCatV1.14B232,2013-07-05 08:16:00,
2013-07-05 04:21:00,72.2,70.4,30.16,NNW,343,0.0,0.0,94,0.00,,,0.00,520,WeatherCatV1.14B232,2013-07-05 08:21:00,
2013-07-05 04:26:00,72.2,70.4,30.17,NNW,343,0.0,0.0,94,0.00,,,0.00,520,WeatherCatV1.14B232,2013-07-05 08:26:00,
2013-07-05 04:31:00,72.2,70.4,30.16,NNW,343,0.0,0.0,94,0.00,,,0.00,520,WeatherCatV1.14B232,2013-07-05 08:31:00,
2013-07-05 04:36:00,72.1,70.3,30.17,NNW,343,0.0,0.0,94,0.00,,,0.00,520,WeatherCatV1.14B232,2013-07-05 08:36:00,
2013-07-05 04:41:00,72.0,70.2,30.17,NNW,343,0.0,0.0,94,0.00,,,0.00,520,WeatherCatV1.14B232,2013-07-05 08:41:00,
2013-07-05 04:46:00,71.9,70.1,30.17,NNW,342,0.0,0.0,94,0.00,,,0.00,520,WeatherCatV1.14B232,2013-07-05 08:46:00,
2013-07-05 04:51:00,71.9,70.1,30.17,NNW,342,0.0,0.0,94,0.00,,,0.00,520,WeatherCatV1.14B232,2013-07-05 08:51:00,
2013-07-05 04:56:00,71.8,70.0,30.17,NNW,343,0.0,0.0,94,0.00,,,0.00,520,WeatherCatV1.14B232,2013-07-05 08:56:00,
2013-07-05 05:01:00,71.8,70.0,30.17,NNW,343,0.0,1.0,94,0.00,,,0.00,520,WeatherCatV1.14B232,2013-07-05 09:01:00,
2013-07-05 05:06:00,71.9,70.1,30.17,NNW,343,0.0,0.0,94,0.00,,,0.00,520,WeatherCatV1.14B232,2013-07-05 09:06:00,
2013-07-05 05:10:00,71.8,70.0,30.17,NNW,343,0.0,0.0,94,0.00,,,0.00,520,WeatherCatV1.14B232,2013-07-05 09:10:00,
2013-07-05 05:15:00,71.7,69.9,30.17,NNW,343,0.0,0.0,94,0.00,,,0.00,520,WeatherCatV1.14B232,2013-07-05 09:15:00,
2013-07-05 05:20:00,71.7,69.9,30.17,NNW,342,0.0,0.0,94,0.00,,,0.00,520,WeatherCatV1.14B232,2013-07-05 09:20:00,
2013-07-05 05:25:00,71.6,70.1,30.17,NNW,343,0.0,1.0,95,0.00,,,0.00,520,WeatherCatV1.14B232,2013-07-05 09:25:00,
2013-07-05 05:30:00,71.7,70.2,30.17,NNW,342,0.0,0.0,95,0.00,,,0.00,520,WeatherCatV1.14B232,2013-07-05 09:30:00,
2013-07-05 05:35:00,71.8,70.3,30.17,NNW,343,0.0,1.0,95,0.00,,,0.00,520,WeatherCatV1.14B232,2013-07-05 09:35:00,
2013-07-05 05:41:00,71.9,70.4,30.18,NNW,343,0.0,1.0,95,0.00,,,0.00,520,WeatherCatV1.14B232,2013-07-05 09:41:00,
2013-07-05 05:46:00,71.9,70.4,30.18,NNW,342,0.0,1.0,95,0.00,,,0.00,520,WeatherCatV1.14B232,2013-07-05 09:46:00,
2013-07-05 05:51:00,71.9,70.4,30.18,NNW,343,0.0,1.0,95,0.00,,,0.00,520,WeatherCatV1.14B232,2013-07-05 09:51:00,
2013-07-05 05:56:00,72.0,70.5,30.18,NNW,343,0.0,1.0,95,0.00,,,0.00,520,WeatherCatV1.14B232,2013-07-05 09:56:00,
2013-07-05 06:01:00,72.0,70.5,30.18,NNW,343,0.0,1.0,95,0.00,,,0.00,520,WeatherCatV1.14B232,2013-07-05 10:01:00,
2013-07-05 06:06:00,72.0,70.5,30.18,NNW,343,0.0,0.0,95,0.00,,,0.00,520,WeatherCatV1.14B232,2013-07-05 10:06:00,
2013-07-05 06:11:00,72.0,70.5,30.18,NNW,342,0.0,0.0,95,0.00,,,0.00,520,WeatherCatV1.14B232,2013-07-05 10:11:00,
2013-07-05 06:16:00,72.1,70.6,30.18,NNW,343,0.0,1.0,95,0.00,,,0.00,520,WeatherCatV1.14B232,2013-07-05 10:16:00,
2013-07-05 06:21:00,72.1,70.6,30.18,NNW,343,1.0,1.0,95,0.00,,,0.00,520,WeatherCatV1.14B232,2013-07-05 10:21:00,
2013-07-05 06:26:00,72.1,70.6,30.17,NNW,343,0.0,0.0,95,0.00,,,0.00,520,WeatherCatV1.14B232,2013-07-05 10:26:00,
2013-07-05 06:31:00,72.2,70.7,30.18,NNW,343,0.0,0.0,95,0.00,,,0.00,520,WeatherCatV1.14B232,2013-07-05 10:31:00,
2013-07-05 06:36:00,72.3,70.8,30.18,NNW,343,0.0,0.0,95,0.00,,,0.00,520,WeatherCatV1.14B232,2013-07-05 10:36:00,
2013-07-05 06:41:00,72.4,70.9,30.18,NNW,342,0.0,0.0,95,0.00,,,0.00,520,WeatherCatV1.14B232,2013-07-05 10:41:00,
2013-07-05 06:46:00,72.5,71.0,30.18,NNW,343,0.0,1.0,95,0.00,,,0.00,520,WeatherCatV1.14B232,2013-07-05 10:46:00,
2013-07-05 06:51:00,72.6,71.1,30.18,NNW,343,0.0,0.0,95,0.00,,,0.00,520,WeatherCatV1.14B232,2013-07-05 10:51:00,
2013-07-05 06:56:00,72.7,71.2,30.18,NNW,343,0.0,0.0,95,0.00,,,0.00,520,WeatherCatV1.14B232,2013-07-05 10:56:00,
2013-07-05 07:01:00,72.9,71.4,30.18,NNW,343,0.0,0.0,95,0.00,,,0.00,520,WeatherCatV1.14B232,2013-07-05 11:01:00,
2013-07-05 07:06:00,73.1,71.6,30.18,ESE,113,1.0,1.0,95,0.00,,,0.00,520,WeatherCatV1.14B232,2013-07-05 11:06:00,
2013-07-05 07:11:00,73.7,72.2,30.18,ESE,113,0.0,1.0,95,0.00,,,0.00,520,WeatherCatV1.14B232,2013-07-05 11:11:00,
2013-07-05 07:16:00,74.5,72.3,30.18,ESE,113,0.0,0.0,93,0.00,,,0.00,520,WeatherCatV1.14B232,2013-07-05 11:16:00,
2013-07-05 07:21:00,75.4,72.9,30.18,ESE,113,0.0,1.0,92,0.00,,,0.00,520,WeatherCatV1.14B232,2013-07-05 11:21:00,
2013-07-05 07:26:00,76.3,73.1,30.18,ESE,113,0.0,0.0,90,0.00,,,0.00,520,WeatherCatV1.14B232,2013-07-05 11:26:00,
2013-07-05 07:31:00,77.2,73.7,30.18,ESE,113,0.0,1.0,89,0.00,,,0.00,520,WeatherCatV1.14B232,2013-07-05 11:31:00,
2013-07-05 07:36:00,77.8,73.6,30.18,ESE,113,0.0,1.0,87,0.00,,,0.00,520,WeatherCatV1.14B232,2013-07-05 11:36:00,
2013-07-05 07:41:00,78.4,73.9,30.18,ESE,113,1.0,1.0,86,0.00,,,0.00,520,WeatherCatV1.14B232,2013-07-05 11:41:00,
2013-07-05 07:46:00,78.7,73.8,30.18,ESE,113,0.0,0.0,85,0.00,,,0.00,520,WeatherCatV1.14B232,2013-07-05 11:46:00,
2013-07-05 07:51:00,79.1,73.8,30.18,ESE,113,0.0,2.0,84,0.00,,,0.00,520,WeatherCatV1.14B232,2013-07-05 11:51:00,
2013-07-05 07:56:00,79.0,73.7,30.18,ESE,113,0.0,0.0,84,0.00,,,0.00,520,WeatherCatV1.14B232,2013-07-05 11:56:00,
2013-07-05 08:01:00,79.4,74.1,30.18,ESE,113,0.0,1.0,84,0.00,,,0.00,520,WeatherCatV1.14B232,2013-07-05 12:01:00,
2013-07-05 08:06:00,79.6,74.0,30.19,ESE,113,0.0,0.0,83,0.00,,,0.00,520,WeatherCatV1.14B232,2013-07-05 12:06:00,
2013-07-05 08:11:00,79.8,74.5,30.18,ESE,113,1.0,1.0,84,0.00,,,0.00,520,WeatherCatV1.14B232,2013-07-05 12:11:00,
2013-07-05 08:16:00,79.9,74.3,30.19,ESE,113,0.0,1.0,83,0.00,,,0.00,520,WeatherCatV1.14B232,2013-07-05 12:16:00,
2013-07-05 08:21:00,80.7,75.0,30.19,ESE,113,0.0,0.0,83,0.00,,,0.00,520,WeatherCatV1.14B232,2013-07-05 12:21:00,
2013-07-05 08:26:00,80.8,74.8,30.18,ESE,113,0.0,0.0,82,0.00,,,0.00,520,WeatherCatV1.14B232,2013-07-05 12:26:00,
2013-07-05 08:31:00,80.8,75.1,30.18,ESE,113,0.0,0.0,83,0.00,,,0.00,520,WeatherCatV1.14B232,2013-07-05 12:31:00,
2013-07-05 08:36:00,80.7,74.7,30.18,ESE,113,0.0,1.0,82,0.00,,,0.00,520,WeatherCatV1.14B232,2013-07-05 12:36:00,
2013-07-05 08:38:00,80.7,74.7,30.18,ESE,113,0.0,0.0,82,0.00,,,0.00,520,WeatherCatV1.14B232,2013-07-05 12:38:00,
2013-07-05 08:43:00,80.5,74.8,30.18,ESE,113,0.0,0.0,83,0.00,,,0.00,520,WeatherCatV1.14B232,2013-07-05 12:43:00,
2013-07-05 08:48:00,80.7,74.7,30.18,ESE,113,0.0,1.0,82,0.00,,,0.00,520,WeatherCatV1.14B232,2013-07-05 12:48:00,
2013-07-05 08:53:00,81.2,75.2,30.18,ESE,113,0.0,2.0,82,0.00,,,0.00,520,WeatherCatV1.14B232,2013-07-05 12:53:00,
2013-07-05 08:58:00,81.6,75.6,30.18,ESE,113,0.0,0.0,82,0.00,,,0.00,520,WeatherCatV1.14B232,2013-07-05 12:58:00,
2013-07-05 09:03:00,82.0,75.2,30.18,ESE,113,2.0,3.0,80,0.00,,,0.00,520,WeatherCatV1.14B232,2013-07-05 13:03:00,
2013-07-05 09:08:00,81.8,75.0,30.17,ESE,113,1.0,1.0,80,0.00,,,0.00,520,WeatherCatV1.14B232,2013-07-05 13:08:00,
2013-07-05 09:10:00,81.9,75.1,30.17,ESE,113,0.0,1.0,80,0.00,,,0.00,520,WeatherCatV1.14B232,2013-07-05 13:10:00,
2013-07-05 09:15:00,82.4,74.8,30.17,ESE,113,1.0,2.0,78,0.00,,,0.00,520,WeatherCatV1.14B232,2013-07-05 13:15:00,
2013-07-05 09:20:00,82.6,75.0,30.17,ESE,113,1.0,1.0,78,0.00,,,0.00,520,WeatherCatV1.14B232,2013-07-05 13:20:00,
2013-07-05 09:25:00,82.9,75.3,30.17,ESE,113,0.0,1.0,78,0.00,,,0.00,520,WeatherCatV1.14B232,2013-07-05 13:25:00,
2013-07-05 09:30:00,83.2,75.2,30.17,ESE,113,0.0,1.0,77,0.00,,,0.00,520,WeatherCatV1.14B232,2013-07-05 13:30:00,
2013-07-05 09:35:00,83.5,75.1,30.17,ESE,113,1.0,1.0,76,0.00,,,0.00,520,WeatherCatV1.14B232,2013-07-05 13:35:00,
2013-07-05 09:40:00,83.7,75.3,30.17,ESE,113,1.0,1.0,76,0.00,,,0.00,520,WeatherCatV1.14B232,2013-07-05 13:40:00,
2013-07-05 09:45:00,83.8,75.4,30.16,ESE,114,0.0,1.0,76,0.00,,,0.00,520,WeatherCatV1.14B232,2013-07-05 13:45:00,
2013-07-05 09:50:00,84.2,74.6,30.16,ESE,113,0.0,1.0,73,0.00,,,0.00,520,WeatherCatV1.14B232,2013-07-05 13:50:00,
2013-07-05 09:54:00,84.1,75.3,30.16,ESE,113,0.0,2.0,75,0.00,,,0.00,520,WeatherCatV1.14B232,2013-07-05 13:54:00,
2013-07-05 09:59:00,84.6,75.4,30.17,ESE,113,1.0,2.0,74,0.00,,,0.00,520,WeatherCatV1.14B232,2013-07-05 13:59:00,
2013-07-05 10:04:00,84.8,74.7,30.17,ESE,114,1.0,1.0,72,0.00,,,0.00,520,WeatherCatV1.14B232,2013-07-05 14:04:00,
2013-07-05 10:09:00,85.5,75.4,30.17,ESE,114,2.0,2.0,72,0.00,,,0.00,520,WeatherCatV1.14B232,2013-07-05 14:09:00,
2013-07-05 10:14:00,86.4,76.7,30.17,ESE,115,0.0,1.0,73,0.00,,,0.00,520,WeatherCatV1.14B232,2013-07-05 14:14:00,
2013-07-05 10:19:00,86.9,76.8,30.17,ESE,113,0.0,1.0,72,0.00,,,0.00,520,WeatherCatV1.14B232,2013-07-05 14:19:00,
2013-07-05 10:24:00,87.1,75.2,30.17,ESE,113,0.0,3.0,68,0.00,,,0.00,520,WeatherCatV1.14B232,2013-07-05 14:24:00,
2013-07-05 10:29:00,87.3,76.3,30.17,ESE,113,2.0,2.0,70,0.00,,,0.00,520,WeatherCatV1.14B232,2013-07-05 14:29:00,
2013-07-05 10:34:00,87.1,76.5,30.16,ESE,113,1.0,2.0,71,0.00,,,0.00,520,WeatherCatV1.14B232,2013-07-05 14:34:00,
2013-07-05 10:39:00,87.4,76.4,30.16,ESE,113,0.0,1.0,70,0.00,,,0.00,520,WeatherCatV1.14B232,2013-07-05 14:39:00,
2013-07-05 10:44:00,87.7,76.7,30.16,ESE,113,1.0,1.0,70,0.00,,,0.00,520,WeatherCatV1.14B232,2013-07-05 14:44:00,
2013-07-05 10:49:00,88.0,76.5,30.16,ESE,113,2.0,2.0,69,0.00,,,0.00,520,WeatherCatV1.14B232,2013-07-05 14:49:00,
2013-07-05 10:54:00,88.1,75.3,30.16,ESE,113,0.0,1.0,66,0.00,,,0.00,520,WeatherCatV1.14B232,2013-07-05 14:54:00,
2013-07-05 10:59:00,88.2,76.7,30.16,ESE,113,0.0,0.0,69,0.00,,,0.00,520,WeatherCatV1.14B232,2013-07-05 14:59:00,
2013-07-05 11:00:00,88.4,76.9,30.16,ESE,113,0.0,0.0,69,0.00,,,0.00,520,WeatherCatV1.14B232,2013-07-05 15:00:00,
2013-07-05 11:05:00,88.7,75.8,30.16,ESE,113,0.0,1.0,66,0.00,,,0.00,520,WeatherCatV1.14B232,2013-07-05 15:05:00,
2013-07-05 11:10:00,88.7,76.7,30.16,ESE,113,0.0,1.0,68,0.00,,,0.00,520,WeatherCatV1.14B232,2013-07-05 15:10:00,
2013-07-05 11:15:00,89.1,76.2,30.16,ESE,113,0.0,2.0,66,0.00,,,0.00,520,WeatherCatV1.14B232,2013-07-05 15:15:00,
2013-07-05 11:20:00,89.1,76.2,30.16,ESE,114,1.0,2.0,66,0.00,,,0.00,520,WeatherCatV1.14B232,2013-07-05 15:20:00,
2013-07-05 11:25:00,88.8,76.4,30.16,ESE,114,1.0,2.0,67,0.00,,,0.00,520,WeatherCatV1.14B232,2013-07-05 15:25:00,
2013-07-05 11:30:00,88.9,76.0,30.16,ESE,114,1.0,3.0,66,0.00,,,0.00,520,WeatherCatV1.14B232,2013-07-05 15:30:00,
2013-07-05 11:35:00,89.3,75.0,30.15,ESE,114,1.0,5.0,63,0.00,,,0.00,520,WeatherCatV1.14B232,2013-07-05 15:35:00,
2013-07-05 11:40:00,88.9,75.6,30.15,ESE,114,1.0,2.0,65,0.00,,,0.00,520,WeatherCatV1.14B232,2013-07-05 15:40:00,
2013-07-05 11:45:00,89.1,76.2,30.15,ESE,114,1.0,2.0,66,0.00,,,0.00,520,WeatherCatV1.14B232,2013-07-05 15:45:00,
2013-07-05 11:50:00,89.5,76.6,30.15,ESE,114,0.0,0.0,66,0.00,,,0.00,520,WeatherCatV1.14B232,2013-07-05 15:50:00,
2013-07-05 11:55:00,90.3,76.0,30.15,ESE,114,0.0,0.0,63,0.00,,,0.00,520,WeatherCatV1.14B232,2013-07-05 15:55:00,
2013-07-05 12:00:00,90.7,77.3,30.15,ESE,114,0.0,2.0,65,0.00,,,0.00,520,WeatherCatV1.14B232,2013-07-05 16:00:00,
2013-07-05 12:05:00,90.4,75.1,30.15,ESE,114,1.0,1.0,61,0.00,,,0.00,520,WeatherCatV1.14B232,2013-07-05 16:05:00,
2013-07-05 12:10:00,90.6,77.2,30.15,ESE,113,1.0,0.0,65,0.00,,,0.00,520,WeatherCatV1.14B232,2013-07-05 16:10:00,
2013-07-05 12:15:00,90.8,76.9,30.15,ESE,114,1.0,1.0,64,0.00,,,0.00,520,WeatherCatV1.14B232,2013-07-05 16:15:00,
2013-07-05 12:20:00,91.1,77.2,30.15,ESE,114,1.0,0.0,64,0.00,,,0.00,520,WeatherCatV1.14B232,2013-07-05 16:20:00,
2013-07-05 12:25:00,91.2,76.8,30.15,ESE,113,0.0,1.0,63,0.00,,,0.00,520,WeatherCatV1.14B232,2013-07-05 16:25:00,
2013-07-05 12:30:00,90.7,75.4,30.15,ESE,113,0.0,0.0,61,0.00,,,0.00,520,WeatherCatV1.14B232,2013-07-05 16:30:00,
2013-07-05 12:35:00,89.9,76.5,30.15,ESE,113,0.0,1.0,65,0.00,,,0.00,520,WeatherCatV1.14B232,2013-07-05 16:35:00,
2013-07-05 12:40:00,89.6,76.7,30.15,ESE,113,0.0,1.0,66,0.00,,,0.00,520,WeatherCatV1.14B232,2013-07-05 16:40:00,
2013-07-05 12:45:00,89.5,76.6,30.14,ESE,113,1.0,1.0,66,0.00,,,0.00,520,WeatherCatV1.14B232,2013-07-05 16:45:00,
2013-07-05 12:50:00,89.5,76.6,30.14,ESE,113,1.0,2.0,66,0.00,,,0.00,520,WeatherCatV1.14B232,2013-07-05 16:50:00,
2013-07-05 12:55:00,90.2,76.8,30.14,ESE,113,0.0,1.0,65,0.00,,,0.00,520,WeatherCatV1.14B232,2013-07-05 16:55:00,
2013-07-05 13:00:00,90.3,77.4,30.14,ESE,113,1.0,2.0,66,0.00,,,0.00,520,WeatherCatV1.14B232,2013-07-05 17:00:00,
2013-07-05 13:05:00,89.5,76.6,30.14,ESE,113,1.0,0.0,66,0.00,,,0.00,520,WeatherCatV1.14B232,2013-07-05 17:05:00,
2013-07-05 13:10:00,89.2,76.3,30.14,ESE,113,0.0,0.0,66,0.00,,,0.00,520,WeatherCatV1.14B232,2013-07-05 17:10:00,
2013-07-05 13:15:00,89.2,76.8,30.14,ESE,113,0.0,1.0,67,0.00,,,0.00,520,WeatherCatV1.14B232,2013-07-05 17:15:00,
2013-07-05 13:20:00,88.7,77.2,30.14,ESE,113,0.0,1.0,69,0.00,,,0.00,520,WeatherCatV1.14B232,2013-07-05 17:20:00,
2013-07-05 13:25:00,88.2,75.4,30.13,ESE,113,0.0,3.0,66,0.00,,,0.00,520,WeatherCatV1.14B232,2013-07-05 17:25:00,
2013-07-05 13:30:00,88.4,76.0,30.13,ESE,113,1.0,1.0,67,0.00,,,0.00,520,WeatherCatV1.14B232,2013-07-05 17:30:00,
2013-07-05 13:42:00,89.1,75.8,30.13,ESE,113,1.0,2.0,65,0.00,,,0.00,520,WeatherCatV1.14B232,2013-07-05 17:42:00,
2013-07-05 13:47:00,89.9,74.1,30.13,ESE,114,0.0,2.0,60,0.00,,,0.00,520,WeatherCatV1.14B232,2013-07-05 17:47:00,
2013-07-05 13:52:00,90.3,75.5,30.13,ESE,113,1.0,2.0,62,0.00,,,0.00,520,WeatherCatV1.14B232,2013-07-05 17:52:00,
2013-07-05 13:57:00,90.2,75.9,30.12,ESE,113,1.0,1.0,63,0.00,,,0.00,520,WeatherCatV1.14B232,2013-07-05 17:57:00,
2013-07-05 14:02:00,90.2,74.9,30.12,ESE,115,1.0,3.0,61,0.00,,,0.00,520,WeatherCatV1.14B232,2013-07-05 18:02:00,
2013-07-05 14:07:00,90.0,74.7,30.12,ESE,113,0.0,1.0,61,0.00,,,0.00,520,WeatherCatV1.14B232,2013-07-05 18:07:00,
2013-07-05 14:12:00,90.3,75.0,30.12,ESE,114,0.0,1.0,61,0.00,,,0.00,520,WeatherCatV1.14B232,2013-07-05 18:12:00,
2013-07-05 14:17:00,90.4,74.6,30.12,ESE,113,0.0,2.0,60,0.00,,,0.00,520,WeatherCatV1.14B232,2013-07-05 18:17:00,
2013-07-05 14:22:00,90.7,74.4,30.12,ESE,114,1.0,1.0,59,0.00,,,0.00,520,WeatherCatV1.14B232,2013-07-05 18:22:00,
2013-07-05 14:27:00,90.7,73.3,30.12,ESE,114,1.0,3.0,57,0.00,,,0.00,520,WeatherCatV1.14B232,2013-07-05 18:27:00,
2013-07-05 14:32:00,90.5,75.2,30.11,ESE,115,1.0,1.0,61,0.00,,,0.00,520,WeatherCatV1.14B232,2013-07-05 18:32:00,
2013-07-05 14:37:00,90.4,75.1,30.11,ESE,114,0.0,1.0,61,0.00,,,0.00,520,WeatherCatV1.14B232,2013-07-05 18:37:00,
2013-07-05 14:42:00,90.6,74.3,30.11,ESE,115,0.0,1.0,59,0.00,,,0.00,520,WeatherCatV1.14B232,2013-07-05 18:42:00,
2013-07-05 14:47:00,90.8,74.5,30.11,ESE,114,3.0,4.0,59,0.00,,,0.00,520,WeatherCatV1.14B232,2013-07-05 18:47:00,
2013-07-05 14:52:00,90.3,74.0,30.11,ESE,113,0.0,3.0,59,0.00,,,0.00,520,WeatherCatV1.14B232,2013-07-05 18:52:00,
2013-07-05 14:57:00,90.5,74.7,30.11,ESE,115,1.0,1.0,60,0.00,,,0.00,520,WeatherCatV1.14B232,2013-07-05 18:57:00,
2013-07-05 15:02:00,90.4,74.1,30.11,ESE,115,1.0,2.0,59,0.00,,,0.00,520,WeatherCatV1.14B232,2013-07-05 19:02:00,
2013-07-05 15:07:00,90.3,73.5,30.11,ESE,115,3.0,4.0,58,0.00,,,0.00,520,WeatherCatV1.14B232,2013-07-05 19:07:00,
2013-07-05 15:11:00,90.0,73.2,30.10,ESE,114,0.0,4.0,58,0.00,,,0.00,520,WeatherCatV1.14B232,2013-07-05 19:11:00,
2013-07-05 15:16:00,90.0,73.7,30.10,ESE,114,2.0,3.0,59,0.00,,,0.00,520,WeatherCatV1.14B232,2013-07-05 19:16:00,
2013-07-05 15:21:00,89.8,74.5,30.10,ESE,113,1.0,4.0,61,0.00,,,0.00,520,WeatherCatV1.14B232,2013-07-05 19:21:00,
2013-07-05 15:26:00,89.5,73.2,30.10,ESE,113,1.0,2.0,59,0.00,,,0.00,520,WeatherCatV1.14B232,2013-07-05 19:26:00,
2013-07-05 15:31:00,89.5,73.2,30.10,ESE,113,1.0,2.0,59,0.00,,,0.00,520,WeatherCatV1.14B232,2013-07-05 19:31:00,
2013-07-05 15:36:00,89.3,74.0,30.10,ESE,113,1.0,3.0,61,0.00,,,0.00,520,WeatherCatV1.14B232,2013-07-05 19:36:00,
2013-07-05 15:41:00,88.8,73.1,30.10,ESE,113,0.0,1.0,60,0.00,,,0.00,520,WeatherCatV1.14B232,2013-07-05 19:41:00,
2013-07-05 15:46:00,88.4,74.2,30.10,ESE,113,1.0,6.0,63,0.00,,,0.00,520,WeatherCatV1.14B232,2013-07-05 19:46:00,
2013-07-05 15:51:00,88.4,74.6,30.09,ESE,113,0.0,1.0,64,0.00,,,0.00,520,WeatherCatV1.14B232,2013-07-05 19:51:00,
2013-07-05 15:56:00,88.7,75.4,30.09,ESE,113,0.0,0.0,65,0.00,,,0.00,520,WeatherCatV1.14B232,2013-07-05 19:56:00,
2013-07-05 16:01:00,88.8,74.5,30.09,ESE,113,0.0,2.0,63,0.00,,,0.00,520,WeatherCatV1.14B232,2013-07-05 20:01:00,
2013-07-05 16:06:00,88.7,75.4,30.09,ESE,113,1.0,2.0,65,0.00,,,0.00,520,WeatherCatV1.14B232,2013-07-05 20:06:00,
2013-07-05 16:11:00,88.6,74.4,30.09,ESE,113,0.0,1.0,63,0.00,,,0.00,520,WeatherCatV1.14B232,2013-07-05 20:11:00,
2013-07-05 16:16:00,88.6,73.9,30.09,ESE,113,0.0,1.0,62,0.00,,,0.00,520,WeatherCatV1.14B232,2013-07-05 20:16:00,
2013-07-05 16:21:00,88.5,73.8,30.09,ESE,113,0.0,2.0,62,0.00,,,0.00,520,WeatherCatV1.14B232,2013-07-05 20:21:00,
2013-07-05 16:26:00,88.2,74.4,30.08,ESE,113,1.0,1.0,64,0.00,,,0.00,520,WeatherCatV1.14B232,2013-07-05 20:26:00,
2013-07-05 16:31:00,88.1,74.8,30.08,ESE,113,0.0,1.0,65,0.00,,,0.00,520,WeatherCatV1.14B232,2013-07-05 20:31:00,
2013-07-05 16:36:00,88.4,74.6,30.08,ESE,113,0.0,2.0,64,0.00,,,0.00,520,WeatherCatV1.14B232,2013-07-05 20:36:00,
2013-07-05 16:41:00,88.6,74.4,30.08,ESE,113,0.0,2.0,63,0.00,,,0.00,520,WeatherCatV1.14B232,2013-07-05 20:41:00,
2013-07-05 16:46:00,88.6,75.8,30.08,ESE,113,1.0,1.0,66,0.00,,,0.00,520,WeatherCatV1.14B232,2013-07-05 20:46:00,
2013-07-05 16:51:00,88.4,73.7,30.08,ESE,113,0.0,2.0,62,0.00,,,0.00,520,WeatherCatV1.14B232,2013-07-05 20:51:00,
2013-07-05 16:56:00,88.3,74.5,30.08,ESE,110,1.0,2.0,64,0.00,,,0.00,520,WeatherCatV1.14B232,2013-07-05 20:56:00,
2013-07-05 17:01:00,88.2,72.5,30.08,ESE,110,0.0,3.0,60,0.00,,,0.00,520,WeatherCatV1.14B232,2013-07-05 21:01:00,
2013-07-05 17:06:00,88.4,73.7,30.07,ESE,110,5.0,5.0,62,0.00,,,0.00,520,WeatherCatV1.14B232,2013-07-05 21:06:00,
2013-07-05 17:11:00,88.4,72.7,30.07,ESE,110,1.0,2.0,60,0.00,,,0.00,520,WeatherCatV1.14B232,2013-07-05 21:11:00,
2013-07-05 17:16:00,88.5,73.8,30.07,ESE,110,0.0,2.0,62,0.00,,,0.00,520,WeatherCatV1.14B232,2013-07-05 21:16:00,
2013-07-05 17:21:00,88.3,73.1,30.07,ESE,110,1.0,2.0,61,0.00,,,0.00,520,WeatherCatV1.14B232,2013-07-05 21:21:00,
2013-07-05 17:26:00,87.9,73.2,30.07,ESE,110,2.0,2.0,62,0.00,,,0.00,520,WeatherCatV1.14B232,2013-07-05 21:26:00,
2013-07-05 17:31:00,87.7,73.5,30.07,ESE,110,1.0,3.0,63,0.00,,,0.00,520,WeatherCatV1.14B232,2013-07-05 21:31:00,
2013-07-05 17:36:00,87.7,74.0,30.07,ESE,110,0.0,1.0,64,0.00,,,0.00,520,WeatherCatV1.14B232,2013-07-05 21:36:00,
2013-07-05 17:41:00,87.8,74.5,30.07,ESE,110,0.0,1.0,65,0.00,,,0.00,520,WeatherCatV1.14B232,2013-07-05 21:41:00,
2013-07-05 17:46:00,87.8,73.1,30.07,ESE,110,0.0,1.0,62,0.00,,,0.00,520,WeatherCatV1.14B232,2013-07-05 21:46:00,
2013-07-05 17:47:00,87.8,73.6,30.07,ESE,110,1.0,1.0,63,0.00,,,0.00,520,WeatherCatV1.14B232,2013-07-05 21:47:00,
2013-07-05 17:52:00,87.7,72.5,30.06,ESE,110,1.0,4.0,61,0.00,,,0.00,520,WeatherCatV1.14B232,2013-07-05 21:52:00,
2013-07-05 17:57:00,87.7,73.0,30.06,ESE,110,0.0,2.0,62,0.00,,,0.00,520,WeatherCatV1.14B232,2013-07-05 21:57:00,
2013-07-05 18:02:00,87.6,73.4,30.06,ESE,110,0.0,1.0,63,0.00,,,0.00,520,WeatherCatV1.14B232,2013-07-05 22:02:00,
2013-07-05 18:07:00,87.3,73.6,30.06,ESE,110,1.0,2.0,64,0.00,,,0.00,520,WeatherCatV1.14B232,2013-07-05 22:07:00,
2013-07-05 18:12:00,87.2,73.0,30.06,ESE,110,1.0,3.0,63,0.00,,,0.00,520,WeatherCatV1.14B232,2013-07-05 22:12:00,
2013-07-05 18:17:00,87.0,72.8,30.06,ESE,110,0.0,1.0,63,0.00,,,0.00,520,WeatherCatV1.14B232,2013-07-05 22:17:00,
2013-07-05 18:22:00,87.2,73.5,30.06,ESE,110,0.0,0.0,64,0.00,,,0.00,520,WeatherCatV1.14B232,2013-07-05 22:22:00,
2013-07-05 18:27:00,87.1,73.4,30.06,ESE,110,2.0,2.0,64,0.00,,,0.00,520,WeatherCatV1.14B232,2013-07-05 22:27:00,
2013-07-05 18:32:00,86.8,72.7,30.06,ESE,110,0.0,1.0,63,0.00,,,0.00,520,WeatherCatV1.14B232,2013-07-05 22:32:00,
2013-07-05 18:37:00,86.7,72.6,30.06,ESE,110,1.0,1.0,63,0.00,,,0.00,520,WeatherCatV1.14B232,2013-07-05 22:37:00,
2013-07-05 18:42:00,86.5,72.4,30.06,ESE,110,0.0,0.0,63,0.00,,,0.00,520,WeatherCatV1.14B232,2013-07-05 22:42:00,
2013-07-05 18:47:00,86.3,72.2,30.06,ESE,110,0.0,1.0,63,0.00,,,0.00,520,WeatherCatV1.14B232,2013-07-05 22:47:00,
2013-07-05 18:52:00,86.1,72.0,30.06,ESE,110,0.0,1.0,63,0.00,,,0.00,520,WeatherCatV1.14B232,2013-07-05 22:52:00,
2013-07-05 18:57:00,86.0,72.8,30.06,ESE,110,0.0,0.0,65,0.00,,,0.00,520,WeatherCatV1.14B232,2013-07-05 22:57:00,
2013-07-05 19:02:00,85.7,72.5,30.06,ESE,110,0.0,0.0,65,0.00,,,0.00,520,WeatherCatV1.14B232,2013-07-05 23:02:00,
2013-07-05 19:07:00,85.5,73.3,30.06,ESE,110,0.0,1.0,67,0.00,,,0.00,520,WeatherCatV1.14B232,2013-07-05 23:07:00,
2013-07-05 19:12:00,85.3,73.1,30.06,ESE,110,0.0,1.0,67,0.00,,,0.00,520,WeatherCatV1.14B232,2013-07-05 23:12:00,
2013-07-05 19:17:00,85.1,73.3,30.07,ESE,110,0.0,0.0,68,0.00,,,0.00,520,WeatherCatV1.14B232,2013-07-05 23:17:00,
2013-07-05 19:22:00,84.9,73.1,30.06,ESE,110,0.0,1.0,68,0.00,,,0.00,520,WeatherCatV1.14B232,2013-07-05 23:22:00,
2013-07-05 19:27:00,84.5,73.6,30.06,ESE,110,0.0,1.0,70,0.00,,,0.00,520,WeatherCatV1.14B232,2013-07-05 23:27:00,
2013-07-05 19:32:00,84.2,73.3,30.06,ESE,110,0.0,1.0,70,0.00,,,0.00,520,WeatherCatV1.14B232,2013-07-05 23:32:00,
2013-07-05 19:37:00,84.0,73.1,30.06,ESE,110,0.0,0.0,70,0.00,,,0.00,520,WeatherCatV1.14B232,2013-07-05 23:37:00,
2013-07-05 19:42:00,83.9,72.2,30.06,ESE,110,0.0,1.0,68,0.00,,,0.00,520,WeatherCatV1.14B232,2013-07-05 23:42:00,
2013-07-05 19:47:00,83.9,72.2,30.06,ESE,110,0.0,2.0,68,0.00,,,0.00,520,WeatherCatV1.14B232,2013-07-05 23:47:00,
2013-07-05 19:52:00,83.7,72.4,30.06,ESE,110,0.0,1.0,69,0.00,,,0.00,520,WeatherCatV1.14B232,2013-07-05 23:52:00,
2013-07-05 19:57:00,83.4,72.1,30.06,ESE,110,0.0,1.0,69,0.00,,,0.00,520,WeatherCatV1.14B232,2013-07-05 23:57:00,
2013-07-05 20:02:00,83.2,71.9,30.06,ESE,110,0.0,1.0,69,0.00,,,0.00,520,WeatherCatV1.14B232,2013-07-06 00:02:00,
2013-07-05 20:07:00,82.9,71.7,30.06,ESE,110,0.0,1.0,69,0.00,,,0.00,520,WeatherCatV1.14B232,2013-07-06 00:07:00,
2013-07-05 20:12:00,82.7,71.9,30.06,ESE,110,0.0,1.0,70,0.00,,,0.00,520,WeatherCatV1.14B232,2013-07-06 00:12:00,
2013-07-05 20:17:00,82.5,71.7,30.06,ESE,110,0.0,0.0,70,0.00,,,0.00,520,WeatherCatV1.14B232,2013-07-06 00:17:00,
2013-07-05 20:22:00,82.2,71.4,30.06,ESE,110,0.0,0.0,70,0.00,,,0.00,520,WeatherCatV1.14B232,2013-07-06 00:22:00,
2013-07-05 20:27:00,82.1,71.7,30.06,ESE,110,0.0,1.0,71,0.00,,,0.00,520,WeatherCatV1.14B232,2013-07-06 00:27:00,
2013-07-05 20:32:00,81.9,72.0,30.06,ESE,110,0.0,0.0,72,0.00,,,0.00,520,WeatherCatV1.14B232,2013-07-06 00:32:00,
2013-07-05 20:37:00,81.7,71.4,30.06,ESE,110,0.0,1.0,71,0.00,,,0.00,520,WeatherCatV1.14B232,2013-07-06 00:37:00,
2013-07-05 20:42:00,81.7,71.8,30.06,ESE,110,0.0,1.0,72,0.00,,,0.00,520,WeatherCatV1.14B232,2013-07-06 00:42:00,
2013-07-05 20:47:00,81.6,71.7,30.06,ESE,110,0.0,1.0,72,0.00,,,0.00,520,WeatherCatV1.14B232,2013-07-06 00:47:00,
2013-07-05 20:52:00,81.4,71.5,30.06,ESE,110,1.0,1.0,72,0.00,,,0.00,520,WeatherCatV1.14B232,2013-07-06 00:52:00,
2013-07-05 20:57:00,81.3,71.8,30.06,ESE,110,0.0,1.0,73,0.00,,,0.00,520,WeatherCatV1.14B232,2013-07-06 00:57:00,
2013-07-05 21:02:00,81.2,71.7,30.07,ESE,110,0.0,0.0,73,0.00,,,0.00,520,WeatherCatV1.14B232,2013-07-06 01:02:00,
2013-07-05 21:07:00,81.0,71.9,30.07,ESE,110,0.0,1.0,74,0.00,,,0.00,520,WeatherCatV1.14B232,2013-07-06 01:07:00,
2013-07-05 21:12:00,80.8,71.7,30.07,ESE,110,0.0,0.0,74,0.00,,,0.00,520,WeatherCatV1.14B232,2013-07-06 01:12:00,
2013-07-05 21:17:00,80.7,72.0,30.07,ESE,110,0.0,1.0,75,0.00,,,0.00,520,WeatherCatV1.14B232,2013-07-06 01:17:00,
2013-07-05 21:22:00,80.7,72.0,30.08,ESE,110,0.0,0.0,75,0.00,,,0.00,520,WeatherCatV1.14B232,2013-07-06 01:22:00,
2013-07-05 21:27:00,80.6,71.9,30.08,ESE,110,0.0,1.0,75,0.00,,,0.00,520,WeatherCatV1.14B232,2013-07-06 01:27:00,
2013-07-05 21:32:00,80.4,71.7,30.08,ESE,110,0.0,1.0,75,0.00,,,0.00,520,WeatherCatV1.14B232,2013-07-06 01:32:00,
2013-07-05 21:37:00,80.3,72.0,30.08,ESE,110,0.0,0.0,76,0.00,,,0.00,520,WeatherCatV1.14B232,2013-07-06 01:37:00,
2013-07-05 21:42:00,80.2,71.9,30.08,ESE,110,0.0,0.0,76,0.00,,,0.00,520,WeatherCatV1.14B232,2013-07-06 01:42:00,
2013-07-05 21:47:00,80.0,72.1,30.09,ESE,110,0.0,0.0,77,0.00,,,0.00,520,WeatherCatV1.14B232,2013-07-06 01:47:00,
2013-07-05 21:52:00,80.0,72.1,30.09,ESE,110,0.0,1.0,77,0.00,,,0.00,520,WeatherCatV1.14B232,2013-07-06 01:52:00,
2013-07-05 21:57:00,80.1,72.2,30.09,ESE,110,1.0,1.0,77,0.00,,,0.00,520,WeatherCatV1.14B232,2013-07-06 01:57:00,
2013-07-05 22:02:00,80.1,72.2,30.09,ESE,110,0.0,1.0,77,0.00,,,0.00,520,WeatherCatV1.14B232,2013-07-06 02:02:00,
2013-07-05 22:07:00,80.1,72.2,30.09,ESE,110,0.0,1.0,77,0.00,,,0.00,520,WeatherCatV1.14B232,2013-07-06 02:07:00,
2013-07-05 22:12:00,80.3,72.4,30.09,ESE,110,0.0,1.0,77,0.00,,,0.00,520,WeatherCatV1.14B232,2013-07-06 02:12:00,
2013-07-05 22:17:00,80.3,72.4,30.09,ESE,110,0.0,0.0,77,0.00,,,0.00,520,WeatherCatV1.14B232,2013-07-06 02:17:00,
2013-07-05 22:22:00,80.3,72.4,30.09,ESE,110,0.0,1.0,77,0.00,,,0.00,520,WeatherCatV1.14B232,2013-07-06 02:22:00,
2013-07-05 22:27:00,80.1,72.2,30.09,ESE,110,0.0,0.0,77,0.00,,,0.00,520,WeatherCatV1.14B232,2013-07-06 02:27:00,
2013-07-05 22:32:00,80.0,72.5,30.10,ESE,110,0.0,2.0,78,0.00,,,0.00,520,WeatherCatV1.14B232,2013-07-06 02:32:00,
2013-07-05 22:37:00,79.9,72.4,30.10,ESE,110,0.0,1.0,78,0.00,,,0.00,520,WeatherCatV1.14B232,2013-07-06 02:37:00,
2013-07-05 22:42:00,79.7,72.2,30.10,ESE,110,0.0,0.0,78,0.00,,,0.00,520,WeatherCatV1.14B232,2013-07-06 02:42:00,
2013-07-05 22:47:00,79.5,72.4,30.10,ESE,110,0.0,0.0,79,0.00,,,0.00,520,WeatherCatV1.14B232,2013-07-06 02:47:00,
2013-07-05 22:52:00,79.3,72.2,30.10,ESE,110,0.0,0.0,79,0.00,,,0.00,520,WeatherCatV1.14B232,2013-07-06 02:52:00,
2013-07-05 22:57:00,79.2,72.5,30.10,ESE,110,0.0,1.0,80,0.00,,,0.00,520,WeatherCatV1.14B232,2013-07-06 02:57:00,
2013-07-05 23:02:00,79.2,72.5,30.10,ESE,110,0.0,1.0,80,0.00,,,0.00,520,WeatherCatV1.14B232,2013-07-06 03:02:00,
2013-07-05 23:07:00,79.0,72.3,30.10,ESE,110,0.0,0.0,80,0.00,,,0.00,520,WeatherCatV1.14B232,2013-07-06 03:07:00,
2013-07-05 23:12:00,78.9,72.2,30.11,ESE,110,0.0,0.0,80,0.00,,,0.00,520,WeatherCatV1.14B232,2013-07-06 03:12:00,
2013-07-05 23:17:00,78.8,72.5,30.11,ESE,110,0.0,0.0,81,0.00,,,0.00,520,WeatherCatV1.14B232,2013-07-06 03:17:00,
2013-07-05 23:22:00,78.7,72.4,30.10,ESE,110,0.0,0.0,81,0.00,,,0.00,520,WeatherCatV1.14B232,2013-07-06 03:22:00,
2013-07-05 23:27:00,78.6,72.3,30.11,ESE,110,0.0,0.0,81,0.00,,,0.00,520,WeatherCatV1.14B232,2013-07-06 03:27:00,
2013-07-05 23:32:00,78.5,72.2,30.10,ESE,110,0.0,1.0,81,0.00,,,0.00,520,WeatherCatV1.14B232,2013-07-06 03:32:00,
2013-07-05 23:37:00,78.4,72.4,30.10,ESE,110,0.0,0.0,82,0.00,,,0.00,520,WeatherCatV1.14B232,2013-07-06 03:37:00,
2013-07-05 23:42:00,78.3,72.3,30.10,ESE,110,0.0,0.0,82,0.00,,,0.00,520,WeatherCatV1.14B232,2013-07-06 03:42:00,
2013-07-05 23:47:00,78.2,72.2,30.10,ESE,110,0.0,0.0,82,0.00,,,0.00,520,WeatherCatV1.14B232,2013-07-06 03:47:00,
2013-07-05 23:52:00,78.1,72.1,30.10,ESE,110,0.0,1.0,82,0.00,,,0.00,520,WeatherCatV1.14B232,2013-07-06 03:52:00,
2013-07-05 23:57:00,78.1,72.1,30.10,ESE,110,0.0,0.0,82,0.00,,,0.00,520,WeatherCatV1.14B232,2013-07-06 03:57:00,